Location: Morisset
(33.1080°S, 151.4871°E)
Time: 09:08:05
(UTC+00:00)

Cosmos 1733 - Pass Details

Date: 29 October 2020
Orbit: 506 x 520 km, 82.5° (Epoch: 27 November)

Event Time Altitude Azimuth Distance (km) Brightness Sun altitude
Exits shadow 17:10:08 59° 248° (WSW) 613 3.3 -21.0°
Drops below altitude 10° 17:13:50 10° 182° (S) 1,786 6.3 -20.4°
Sets 17:16:01 0° 178° (S) 2,682 7.3 -20.0°
